Outer Banks, North Carolina, United States
Lat: 35.98N, Lon: 75.65W
Wx Zone: NCZ103
Local Info
Past Weather Observations for Today

NOTE: This archive is for the closest National Weather Service station to Outer Banks. Information may differ from the station used for current weather conditions.

Click here for Long-term Archive

Time Weather Temperature Dewpoint Humidity Pressure Winds Precip Visibility
14:55
Partly Cloudy
46°F / 8°C 45°F / 7°C 93% 29.5 in
(999 mb)
NNW 4.6 mph
(NNW 7 kph)
- 10SM
14:35
Mostly Cloudy
48°F / 9°C 45°F / 7°C 87% 29.5 in
(999 mb)
N 8.1 mph
(N 13 kph)
- 10SM
14:15
Partly Cloudy
48°F / 9°C 46°F / 8°C 94% 29.5 in
(999 mb)
NNW 9.2 mph
(NNW 15 kph)
- 10SM
13:55
Clear
50°F / 10°C 46°F / 8°C 88% 29.53 in
(1000 mb)
NNW 3.5 mph
(NNW 6 kph)
- 10SM
13:35
Clear
50°F / 10°C 46°F / 8°C 88% 29.5 in
(999 mb)
NNW 6.9 mph
(NNW 11 kph)
- 10SM
13:15
Clear
50°F / 10°C 48°F / 9°C 94% 29.53 in
(1000 mb)
NNW 3.5 mph
(NNW 6 kph)
- 10SM
12:55
Clear
50°F / 10°C 48°F / 9°C 94% 29.53 in
(1000 mb)
N 3.5 mph
(N 6 kph)
- 10SM
12:35
Partly Cloudy
50°F / 10°C 48°F / 9°C 94% 29.56 in
(1001 mb)
N 3.5 mph
(N 6 kph)
- 10SM
12:15
Partly Cloudy
50°F / 10°C 46°F / 8°C 88% 29.56 in
(1001 mb)
Calm - 10SM
11:55
Clear
50°F / 10°C 46°F / 8°C 88% 29.59 in
(1002 mb)
NE 3.5 mph
(NE 6 kph)
- 10SM
11:35
Clear
50°F / 10°C 46°F / 8°C 88% 29.59 in
(1002 mb)
N 4.6 mph
(N 7 kph)
- 10SM
11:15
Clear
50°F / 10°C 46°F / 8°C 88% 29.59 in
(1002 mb)
N 4.6 mph
(N 7 kph)
- 10SM
10:55
Clear
50°F / 10°C 46°F / 8°C 88% 29.62 in
(1003 mb)
NE 3.5 mph
(NE 6 kph)
- 10SM
10:35
Clear
50°F / 10°C 46°F / 8°C 88% 29.62 in
(1003 mb)
N 3.5 mph
(N 6 kph)
- 10SM
10:15
Partly Cloudy
48°F / 9°C 46°F / 8°C 94% 29.62 in
(1003 mb)
N 3.5 mph
(N 6 kph)
- 10SM
09:55
Partly Cloudy
48°F / 9°C 46°F / 8°C 94% 29.65 in
(1004 mb)
Calm - 10SM
09:35
Clear
48°F / 9°C 46°F / 8°C 94% 29.65 in
(1004 mb)
Calm - 10SM
09:15
Partly Cloudy
48°F / 9°C 46°F / 8°C 94% 29.65 in
(1004 mb)
Calm - 10SM
08:55
Partly Cloudy
48°F / 9°C 46°F / 8°C 94% 29.68 in
(1005 mb)
Calm - 10SM
08:35
Partly Cloudy
46°F / 8°C 46°F / 8°C 100% 29.68 in
(1005 mb)
Calm - 10SM
08:15
Mostly Cloudy
46°F / 8°C 45°F / 7°C 93% 29.68 in
(1005 mb)
Calm - 10SM
07:55
Mostly Cloudy
46°F / 8°C 45°F / 7°C 93% 29.71 in
(1006 mb)
NE 3.5 mph
(NE 6 kph)
- 10SM
07:35
Overcast
46°F / 8°C 45°F / 7°C 93% 29.68 in
(1005 mb)
Calm - 10SM
07:15
Overcast
46°F / 8°C 45°F / 7°C 93% 29.68 in
(1005 mb)
NE 4.6 mph
(NE 7 kph)
- 10SM
06:55
Overcast
46°F / 8°C 45°F / 7°C 93% 29.68 in
(1005 mb)
NE 3.5 mph
(NE 6 kph)
- 10SM
06:35
Overcast
46°F / 8°C 45°F / 7°C 93% 29.71 in
(1006 mb)
Calm - 10SM
06:15
Overcast
46°F / 8°C 43°F / 6°C 87% 29.71 in
(1006 mb)
Calm - 10SM
05:55
Mostly Cloudy
46°F / 8°C 43°F / 6°C 87% 29.71 in
(1006 mb)
E 3.5 mph
(E 6 kph)
- 10SM
05:35
Overcast
46°F / 8°C 43°F / 6°C 87% 29.71 in
(1006 mb)
E 3.5 mph
(E 6 kph)
- 10SM
05:15
Mostly Cloudy
46°F / 8°C 43°F / 6°C 87% 29.71 in
(1006 mb)
E 4.6 mph
(E 7 kph)
- 10SM
04:55
Overcast
45°F / 7°C 43°F / 6°C 93% 29.74 in
(1007 mb)
E 5.8 mph
(E 9 kph)
- 10SM
04:35
Overcast
45°F / 7°C 43°F / 6°C 93% 29.74 in
(1007 mb)
E 6.9 mph
(E 11 kph)
- 10SM
04:15
Mostly Cloudy
45°F / 7°C 43°F / 6°C 93% 29.74 in
(1007 mb)
E 4.6 mph
(E 7 kph)
- 10SM
03:55
Clear
45°F / 7°C 41°F / 5°C 87% 29.77 in
(1008 mb)
E 4.6 mph
(E 7 kph)
- 10SM
03:35
Clear
43°F / 6°C 43°F / 6°C 100% 29.77 in
(1008 mb)
E 4.6 mph
(E 7 kph)
- 10SM
03:15
Clear
43°F / 6°C 41°F / 5°C 93% 29.77 in
(1008 mb)
E 4.6 mph
(E 7 kph)
- 10SM
02:55
Clear
43°F / 6°C 41°F / 5°C 93% 29.8 in
(1009 mb)
E 4.6 mph
(E 7 kph)
- 10SM
02:35
Clear
43°F / 6°C 41°F / 5°C 93% 29.8 in
(1009 mb)
ESE 3.5 mph
(ESE 6 kph)
- 10SM
02:15
Clear
43°F / 6°C 41°F / 5°C 93% 29.8 in
(1009 mb)
E 3.5 mph
(E 6 kph)
- 10SM
01:55
Clear
41°F / 5°C 39°F / 4°C 93% 29.8 in
(1009 mb)
Calm - 10SM
01:35
Clear
41°F / 5°C 39°F / 4°C 93% 29.83 in
(1010 mb)
Calm - 10SM
01:15
Clear
41°F / 5°C 39°F / 4°C 93% 29.83 in
(1010 mb)
Calm - 10SM
00:55
Clear
41°F / 5°C 39°F / 4°C 93% 29.83 in
(1010 mb)
Calm - 10SM
00:35
Clear
41°F / 5°C 37°F / 3°C 87% 29.86 in
(1011 mb)
Calm - 10SM
00:15
Clear
41°F / 5°C 37°F / 3°C 87% 29.86 in
(1011 mb)
SSE 3.5 mph
(SSE 6 kph)
- 10SM
Time Weather Temperature Dewpoint Humidity Pressure Winds Precip Visibility


Weather for websites

WeatherForYou.com, LLC is not responsible for any damages or problems caused by this service. Current weather conditions are obtained from the closest station including government and personal stations which may have varying degrees of accuracy. Weather forecasts are derived from the NOAA NDFD. Like all things, this site belongs to Jesus Christ... He just trusts me to maintain it. If you have any questions or comments email webmaster@weatherforyou.com

Copyright © 2015, WeatherForYou.com LLC. All rights reserved.